Location: Edemissen
(51.7689°N, 9.8634°E)
Time: 22:38:38
(UTC+00:00)

deb Kosmos-2227 - Visible Passes

Search period start: 18 November 2025 00:00
Search period end: 28 November 2025 00:00
Orbit: 764 x 813 km, 70.8° (Epoch: 17 November)

Date Brightness Start Highest point End Pass type
(mag) Time Alt. Az. Time Alt. Az. Time Alt. Az.
18 Nov ? 16:30:07 10° N 16:30:48 10° N 16:31:30 10° NNE visible
18 Nov ? 18:11:51 10° NNW 18:14:08 18° N 18:14:08 18° N visible
18 Nov ? 19:54:21 10° NNW 19:54:50 13° NNW 19:54:50 13° NNW visible
19 Nov ? 17:40:57 10° NNW 17:43:51 18° NNE 17:43:51 18° NNE visible
19 Nov ? 19:23:20 10° NNW 19:24:33 17° NNW 19:24:33 17° NNW visible
20 Nov ? 17:10:03 10° N 17:13:10 15° NNE 17:13:35 15° NNE visible
20 Nov ? 18:52:19 10° NNW 18:54:16 22° NNW 18:54:16 22° NNW visible
21 Nov ? 16:39:11 10° N 16:41:43 13° NNE 16:43:20 12° NE visible
21 Nov ? 18:21:20 10° NNW 18:24:01 26° N 18:24:01 26° N visible
21 Nov ? 20:04:16 10° NW 20:04:43 12° NW 20:04:43 12° NW visible
22 Nov ? 16:08:20 10° N 16:10:14 12° NNE 16:12:07 10° NE visible
22 Nov ? 17:50:23 10° NNW 17:53:49 27° NNE 17:53:49 27° NNE visible
22 Nov ? 19:33:06 10° NW 19:34:32 19° NW 19:34:32 19° NW visible
23 Nov ? 17:19:26 10° NNW 17:23:40 24° NE 17:23:40 24° NE visible
23 Nov ? 19:02:00 10° NNW 19:04:22 27° NNW 19:04:22 27° NNW visible
24 Nov ? 16:48:30 10° NNW 16:52:22 20° NE 16:53:34 18° NE visible
24 Nov ? 18:30:56 10° NNW 18:34:16 39° NNW 18:34:16 39° NNW visible
24 Nov ? 20:14:41 10° NW 20:14:58 11° WNW 20:14:58 11° WNW visible
25 Nov ? 16:17:34 10° N 16:20:57 17° NNE 16:23:32 12° ENE visible
25 Nov ? 17:59:53 10° NNW 18:04:15 49° NNE 18:04:15 49° NNE visible
25 Nov ? 19:43:14 10° NW 19:44:58 19° WNW 19:44:58 19° WNW visible
26 Nov ? 17:28:52 10° NNW 17:33:54 42° NE 17:34:20 41° ENE visible
26 Nov ? 19:11:55 10° NW 19:15:03 30° WNW 19:15:03 30° WNW visible
27 Nov ? 16:57:52 10° NNW 17:02:39 33° NE 17:04:33 26° E visible
27 Nov ? 18:40:41 10° NW 18:45:18 52° W 18:45:18 52° W visible
